Regional Weather Roundup
Issued by NWS Grand Forks, ND

Home | Current Version | Previous Version | Text Only | Print | Product List | Glossary Off
Versions: 1 2 3 4 5 6 7 8 9 10 11 12 13 14 15 16 17 18 19 20 21 22 23 24 25 26 27 28 29 30 31 32 33 34 35 36 37 38 39 40 41 42 43 44 45 46 47 48 49 50

000
ASUS43 KFGF 260210
RWRFGF
PRAIRIE TO PINES  WEATHER ROUNDUP
NATIONAL WEATHER SERVICE EASTERN NORTH DAKOTA/GRAND FORKS ND
900 PM CDT MON MAY 25 2015

 **SATELLITE DATA USED TO AUGMENT SKY COVER AT AUTOMATED STATIONS**
 *****  WEATHER ACROSS EASTERN NORTH DAKOTA  *****

CITY           SKY/WX    TMP DP  RH WIND       PRES   REMARKS
GRAND FORKS    PTCLDY    64  51  62 S8        29.78S
GRAND FRKS AFB PTCLDY    67  49  53 SW10      29.79R
GRAND FRKS NWS   N/A     63 N/A N/A S6          N/A
DEVILS LAKE    MOCLDY    72  41  33 S5        29.77S
FARGO          CLOUDY    61  55  81 E3        29.82S
WAHPETON ARPT  MOCLDY    59  50  72 NE8       29.80F
$$

 ***** WEATHER ACROSS CENTRAL AND WESTERN NORTH DAKOTA  *****

CITY           SKY/WX    TMP DP  RH WIND       PRES   REMARKS
BISMARCK       MOCLDY    65  56  72 W10       29.85S
MINOT          PTCLDY    69  46  43 S7        29.80S
JAMESTOWN      PTCLDY    63  56  78 S10       29.82R
MINOT AFB      PTCLDY    74  44  34 SW7       29.79S
GARRISON         N/A     69  50  50 NW13      29.84R
WILLISTON      PTCLDY    63  50  62 SW10      29.87S
DICKINSON      PTCLDY    57  47  69 SW8       29.88S
HETTINGER      CLOUDY    58  49  72 S6        29.92S
$$

 *****  OTHER AIRPORT OBSERVATIONS IN OUR AREA  *****

CITY           SKY/WX    TMP DP  RH WIND       PRES   REMARKS
WALHALLA         N/A     72  43  35 S6        29.75R
GRAFTON AIRPOR FAIR      68  54  60 S14       29.77S
VALLEY CITY AR FAIR      59  59 100 S7        29.83F
CANDO          MOCLDY    70  41  35 S6        29.78S
CAVALIER APRT  FAIR      70  50  49 S10       29.75R
GWINNER        NOT AVBL
ROLLA          CLOUDY    72  41  33 NE10      29.81R
 ***** THE ABOVE OBSERVATIONS ARE NON NWS ARE NOT QUALITY
       CONTROLLED AND MAY MIS-REPORT RAIN FOR SNOW...
$$

  *****  WEATHER ACROSS NORTHERN MINNESOTA  *****

CITY           SKY/WX    TMP DP  RH WIND       PRES   REMARKS
FLAG ISLAND    CLOUDY    59  55  88 S7        29.75S
WARROAD        CLOUDY    64  54  68 S6        29.78S
ROSEAU         CLOUDY    66  54  63 S8        29.78R
HALLOCK        PTCLDY    72  48  43 S14       29.76R
THF RVR FALLS  CLOUDY    64  48  55 S13       29.81S
BAUDETTE       CLOUDY    62  52  69 S8        29.80R
WASKISH        CLOUDY    57  52  82 CALM      29.82S
CROOKSTON      MOCLDY    64  48  55 S8        29.81S
STEPHEN NDAWN    N/A     68  54  60 S12         N/A
GREENBUSH NDAW   N/A     66  54  63 S8          N/A
$$
  *****  WEATHER ACROSS CENTRAL AND WEST MINNESOTA  *****

CITY           SKY/WX    TMP DP  RH WIND       PRES   REMARKS
FOSSTON        CLOUDY    57  54  88 CALM      29.84S
BEMIDJI        CLOUDY    55  53  94 CALM      29.83R
PARK RAPIDS    CLOUDY    57  53  86 NE10      29.79S
ELBOW LAKE     MOCLDY    57  51  79 N12G25    29.77F
WADENA         CLOUDY    55  52  88 N15       29.76F
DETROIT LAKES  CLOUDY    57  52  82 NE6       29.82F
MOORHEAD       CLOUDY    61  55  82 N3        29.83F
FERGUS FALLS   CLOUDY    59  52  77 NE7       29.80F
MORRIS MN      CLOUDY    59  52  77 N17G23    29.76R
STAPLES        CLOUDY    55  52  88 N8        29.74F
$$
  *****  WEATHER ELSEWHERE ACROSS MINNESOTA  *****

CITY           SKY/WX    TMP DP  RH WIND       PRES   REMARKS
DULUTH         LGT RAIN  50  48  93 NE5       29.75R FOG
INTRNTL FALLS  CLOUDY    56  52  86 S3        29.80S
ELY            RAIN      54  52  94 N3        29.78S
CLOQUET        DRIZZLE   48  46  93 CALM      29.75S
WHEATON        PTCLDY    55  52  88 N8        29.81F
BRAINERD       CLOUDY    55  54  96 N13       29.73S FOG
HIBBING        LGT RAIN  55  50  83 NE9       29.77S
ALEXANDRIA     CLOUDY    57  52  83 NE15G25   29.76S
SAINT CLOUD    PTCLDY    62  56  80 SW8       29.71R
MINNEAPOLIS    PTCLDY    70  58  65 SW7       29.74R
$$

  *****  WEATHER ACROSS SOUTH DAKOTA  *****

CITY           SKY/WX    TMP DP  RH WIND       PRES   REMARKS
SIOUX FALLS    PTCLDY    63  58  83 N7        29.76F
BROOKINGS      PTCLDY    57  54  88 N6        29.81R
WATERTOWN      CLEAR     56  51  84 NE10      29.80R
HURON          CLEAR     61  50  67 E8        29.81R
SISSETON         N/A     59  52  77 NE15      29.79F
ABERDEEN       MOCLDY    62  51  67 N9        29.81F
MITCHELL       CLEAR     61  55  81 N12       29.78R
PIERRE         CLOUDY    60  51  72 NE10      29.83S
MOBRIDGE       MOCLDY    60  57  89 N5        29.84S
RAPID CITY     CLOUDY    53  53 100 NE12      29.90R
$$

  *****  SOME WEATHER IN NEARBY STATES *****

CITY           SKY/WX    TMP DP  RH WIND       PRES   REMARKS
GLASGOW MT     CLEAR     70  45  40 SE10      29.84S
GREAT FALLS MT MOCLDY    67  44  43 E8        29.83R
CHEYENNE WY    CLOUDY    52  41  66 W12       29.98R
SCOTTSBLUFF NE CLOUDY    54  52  93 NW6       29.89S
OMAHA NE       CLOUDY    68  59  73 S29G39    29.75F
DES MOINES IA  CLOUDY    74  64  71 S12       29.80S
DAVENPORT IA   CLEAR     72  61  68 S9        29.89S
CHICAGO IL     PTCLDY    73  60  63 S6        29.91R
EAU CLAIRE WI  CLEAR     65  62  90 S7        29.76R
LA CROSSE WI   PTCLDY    66  63  90 CALM      29.78R
$$

  *****  SOME NATIONAL WEATHER *****

CITY           SKY/WX    TMP DP  RH WIND       PRES   REMARKS
LA GUARDIA NY  MOCLDY    71  56  58 S9        30.18R
RALEIGH NC     PTCLDY    74  55  51 S5        30.27R
ATLANTA GA     CLOUDY    70  66  87 SE5       30.20F
NEW ORLEANS LA MOCLDY    73  69  87 SE6       30.03R
OKLAHOMA CITY  CLOUDY    63  56  78 CALM      29.81R
ALBUQUERQUE NM CLOUDY    60  47  61 S7        30.05R
SALT LAKE CITY CLOUDY    68  44  42 N7        29.93S
LOS ANGELES CA PTCLDY    61  56  83 W12       29.96S
BOISE ID       CLOUDY    68  48  48 NE3       29.85R
SEATTLE WA     CLOUDY    58  50  75 S6        30.01F
$$

*** WEATHER ACROSS MANITOBA...SASKATCHEWAN AND ONTARIO ***
                ***ONTARIO***

CITY           SKY/WX    TMP DP  RH WIND       PRES   REMARKS
GERALDTON      LGT RAIN  55  55 100 SE5       29.81S
THUNDER BAY    LGT RAIN  57  54  88 NE9       29.75S
SIOUX LOOKOUT  CLOUDY    64  54  68 S9        29.76R
TORONTO        PTCLDY    75  61  60 SW18G24   29.95R
BIG TROUT LK   CLEAR     57  39  51 NE5       29.75S
PICKLE LAKE    MOCLDY    66  34  30 S7        29.75S
DRYDEN         MOCLDY    66  52  59 SW8       29.76R
KENORA         NOT AVBL
$$
                *** MANITOBA***

CITY           SKY/WX    TMP DP  RH WIND       PRES   REMARKS
BRANDON        CLOUDY    73  43  33 W6        29.77R
DAUPHIN        MOCLDY    73  45  35 SW3       29.76R
ISLAND LAKE      N/A     68  39  34 SE6       29.69F
PILOT MOUND      N/A     72  39  30 SW7         N/A
THE PAS        NOT AVBL
THOMPSON       LGT RAIN  73  39  29 W5        29.60S
WINNIPEG       PTCLDY    73  48  40 NW8       29.73R
LYNN LAKE      CLOUDY    46  36  66 NE26G35   29.78R
CHURCHILL      CLOUDY    27  21  80 NE16      30.01R WCI  14
$$
                ***SASKATCHEWAN***

CITY           SKY/WX    TMP DP  RH WIND       PRES   REMARKS
ESTEVAN        MOCLDY    70  45  40 N5        29.83S
KINDERSLEY     MOCLDY    75  34  22 W7        29.83R
LLOYDMINSTER   PTSUNNY   72  34  25 NE3       29.82R
PRINCE ALBERT  CLOUDY    68  46  45 W6        29.76S
REGINA         MOCLDY    75  39  27 W12       29.82S
YORKTON        CLEAR     70  45  40 W5        29.78R
N. BATTLEFORD  CLEAR     72  39  30 N3        29.82S
LA RONGE       CLOUDY    61  52  72 VRB6      29.73R
SASKATOON      PTCLDY    72  43  35 NE3       29.81S
SWIFT CURRENT  MOCLDY    72  36  26 SE6       29.85R
$$
NOTE: THESE ARE AUTOMATED STATIONS WITH LIMITED QUALITY CONTROL
      "FAIR" INDICATES FEW OR NO CLOUDS BELOW 12,000 FEET WITH NO
      SIGNIFICANT WEATHER AND/OR OBSTRUCTIONS TO VISIBILITY.
      SKY/WX - SKY CONDITION AND SIGNIFICANT WEATHER.
      TMP - AIR TEMPERATURE.    DP   - DEWPOINT TEMPERATURE.
      RH  - RELATIVE HUMIDITY.  PRES - PRESSURE.
      HX  - HEAT INDEX.         WCI  - WIND CHILL INDEX.
$


USA.gov is the U.S. government's official web portal to all federal, state and local government web resources and services.